Showing default

CANX-4, 40055

Orbit data source: Space-Track

CANX-4, 40055 is a payload satellite owned by UTIAS-SFL (CA) in SSO that was launched on Mon, 30 Jun 2014 UTC via a PSLV launch vehicle from the Sirharikota (SRI). Payload-class satellites include a variety of spacecraft equipped with specific instruments for various scientific and technological missions. These include communications satellites like Starlink; space stations such as the ISS; scientific satellites like the Hubble; Earth observation satellites from companies like Planet Labs, Umbra, and HawkEye 360; GPS; miniature CubeSats for education and research; and military/defense satellites.

Loading next visibility...
Identifier
40055, 2014-034C
Orbit
SSO
Country
Flag of CACA
Related business
Manufacturer
UTIAS-SFL
Mission
Operational Amateur Technology
Bus & Motor
GNB, Unknown motor
Mass
7 kg wet, 7 kg dry
Launch date (UTC)
2014-06-30 (11 years ago)
Launch vehicle
PSLV
Launch site
Sirharikota (SRI)
Object type
Payload
Rocket body
Debris
Shape & HBR
Box + 4 Ant, 0.1 m
Radar Cross Section
0.060 m², Medium (>0.1 m² and < 1m²)

Expand to show TLE details & history
Last TLE update: 17 hours ago

TLE from 17 hours ago
0 CANX-4
1 40055U 14034C   25245.85414985  .00002129  00000-0  28601-3 0  9992
2 40055  98.3519 105.0614 0012202 209.3997 150.6529 14.80395295602006
Epoch: 2025-09-02T20:29Z
TLE epoch observation values (Epoch: 2025-09-02T20:29:58.547Z)
Latitude
0.00004°
Longitude
175.32803°
Altitude
638.541 km
Speed
7.535 km/s
True Right ascension
07h 00m 14s
True Declination
0° 00' 00"
Sunlit
Object was in daylight at epoch
Visualization orbit readout
Latitude
Unknown
Longitude
Unknown
Altitude
Unknown
Speed
Unknown
Apparent Right ascension
Unknown
Apparent Declination
Unknown
Sunlit
N/A
Visualization observer readout
Local Sidereal Time
05:29:41
Azimuth
Unknown
Elevation
Unknown
Doppler factor
Unknown
Orbital elements
Apogee altitude
633.683 km
Perigee altitude
616.592 km
Semi-major axis
7,003.275 km
Eccentricity
0.00122
Inclination
98.3519°
RAAN
105.0614°
Arg. of periapsis
209.3997°
True anomaly
150.72134°
Mean anomaly
150.6529°
Eccentric anomaly
150.68713°
Mean motion
3.70332 °/min
Orbital period
97.21 mins
BSTAR
0.00028601
Loading maneuver chart data...
Computing Atmospheric mass density...
Loading historical data...
Loading historical data...
Loading historical data...
Loading historical data...
Loading historical data...
Loading historical data...
Loading historical data...
Other satellites on launch #34 in the year 2014 (2014-06-30 UTC)

Documentation

Showing up to 5 results
|